Location: ???? ???? ?????
(31.2680°N, 31.7283°E)
Time: 19:47:55
(UTC+00:00)

Cosmos 2184 Rocket - Pass Details

Date: 13 July 2020
Orbit: 960 x 1001 km, 82.9° (Epoch: 05 August)

Event Time Altitude Azimuth Distance (km) Brightness Sun altitude
Exits shadow 18:58:38 32° 174° (S) 1,612 4.7 -21.7°
Maximum altitude 19:01:44 77° 94° (E) 1,007 3.9 -22.1°
Drops below altitude 10° 19:08:03 10° 9° (N) 2,753 6.8 -23.1°
Sets 19:10:35 0° 8° (N) 3,710 7.6 -23.4°
